DECAYED

CZ-6A DEB, 61795 (Decayed)

Orbit data source: Space-Track

CZ-6A DEB, 61795 was space debris in LEO originally from a launch on Tue, 06 Aug 2024 UTC launched from the Taiyaun Space Center, China (TSC). Debris objects in space refer to the collection of defunct objects orbiting the Earth. Examples of debris include non-operational satellites, rocket bodies, and fragments generated from explosions, collisions, or faulty payload assembly.

Loading next visibility...
Identifier
61795, 2024-140ABK
Orbit
Decayed
Country
Flag of CNCN / PRC
Related business
Manufacturer
SAST
Mission
Decayed spacecraft
Bus & Motor
Unknown
Mass
Unknown
Launch date (UTC)
2024-08-06 (2 years ago)
Launch vehicle
Unknown
Launch site
Taiyaun Space Center, China (TSC)
Object type
Payload
Rocket body
Debris
Shape & HBR
Unknown shape, 1.1 m
Radar Cross Section
Medium (>0.1 m² and <1 m²)

Expand to show TLE details & history
Last TLE update: 1 year ago

TLE from 1 year ago
0 CZ-6A DEB
1 61795U 24140ABK 25076.73740594  .05204282  00000-0  33098-1 0  9995
2 61795  89.2770 332.1770 0014500 239.7731 120.2108 15.72487034 29149
Epoch: 2025-03-17T17:41Z
TLE epoch observation values (Epoch: 2025-03-17T17:41:51.873Z)
Latitude
Longitude
-108.83908°
Altitude
359.983 km
Speed
7.69 km/s
True Right ascension
22h 08m 42s
True Declination
0° 00' 00"
Sunlit
Object was in daylight at epoch
Visualization orbit readout
Latitude
Unknown
Longitude
Unknown
Altitude
Unknown
Speed
Unknown
Apparent Right ascension
Unknown
Apparent Declination
Unknown
Sunlit
N/A
Visualization observer readout
Local Sidereal Time
07:20:38
Azimuth
Unknown
Elevation
Unknown
Doppler factor
Unknown
Orbital elements
Apogee altitude
358.28 km
Perigee altitude
338.773 km
Semi-major axis
6,726.663 km
Eccentricity
0.00145
Inclination
89.277°
RAAN
332.177°
Arg. of periapsis
239.7731°
True anomaly
120.35426°
Mean anomaly
120.2108°
Eccentric anomaly
120.28254°
Mean motion
3.93408 °/min
Orbital period
91.51 mins
BSTAR
0.033098
Loading maneuver chart data...
Computing Atmospheric mass density...
Loading historical data...
Loading historical data...
Loading historical data...
Loading historical data...
Loading historical data...
Loading historical data...
Loading historical data...

Documentation

Showing up to 5 results
|